Regional Weather Roundup
Issued by NWS

Home | Current Version | Previous Version | Graphics & Text | Print | Product List | Glossary On
Versions: 1 2 3 4 5 6 7 8 9 10 11 12 13 14 15 16 17 18 19 20 21 22 23 24 25 26 27 28
000
ASUS45 KPSR 232010
RWRAZ

ARIZONA HOURLY REGIONAL WEATHER ROUNDUP
NATIONAL WEATHER SERVICE PHOENIX AZ
100 PM MST SUN APR 23 2017

NOTE: FAIR INDICATES FEW OR NO CLOUDS BELOW 12,000 FEET WITH NO
SIGNIFICANT WEATHER AND/OR OBSTRUCTIONS TO VISIBILITY.

AZZ001>003-036-232100-
NORTHWEST ARIZONA

CITY           SKY/WX    TMP DP  RH WIND       PRES   REMARKS
BULLHEAD CITY  SUNNY     93  23   8 S22G30    29.67F
KINGMAN        MOSUNNY   85  21   9 SW33G44   29.82F
$$

AZZ004>008-015-016-018-232100-
NORTH CENTRAL ARIZONA

CITY           SKY/WX    TMP DP  RH WIND       PRES   REMARKS
GRAND CANYON   PTSUNNY   67  19  16 SW17G30   30.00F
WILLIAMS       PTSUNNY   72  19  14 SW29G39   30.02F
PRESCOTT       PTSUNNY   75  22  13 S21G31    29.97F
FLAGSTAFF      MOSUNNY   67  21  17 SW25G39   30.04F
PAYSON         SUNNY     75  28  17 S12G20    30.04F
PAGE           CLOUDY    71  23  16 NE5       29.84F
$$

AZZ009>014-017-232100-
NORTHEAST ARIZONA

CITY           SKY/WX    TMP DP  RH WIND       PRES   REMARKS
WINSLOW        SUNNY     83  18   9 S22G36    29.94F
SAINT JOHNS    SUNNY     79  13   8 W21G39    30.00F
WINDOW ROCK    SUNNY     75  19  12 S21G30    30.04F
SHOW LOW       SUNNY     72  18  13 SW23G36   30.08F
$$

AZZ540-542>544-546-548-232100-
GREATER PHOENIX AREA

CITY           SKY/WX    TMP DP  RH WIND       PRES   REMARKS
PHOENIX        PTSUNNY   95  28   9 VRB7      29.76F
BUCKEYE        SUNNY     91  25   9 E5        29.77F
GLENDALE       MOSUNNY   93  25   8 S5        29.79F
LUKE AFB       SUNNY     93  27   9 S7        29.76F
DEER VALLEY    SUNNY     92  25   9 SW9G18    29.79F
SCOTTSDALE     SUNNY     93  25   8 SW9       29.80F
MESA-FALCON    MOSUNNY  N/A N/A N/A S6        29.80F
MESA-GATEWAY   MOSUNNY   91  27   9 SE7       29.80F
CHANDLER       SUNNY     95  21   7 VRB5      29.78F
$$

AZZ539-553-232100-
SOUTHWEST MARICOPA COUNTY AND PINAL COUNTY

CITY           SKY/WX    TMP DP  RH WIND       PRES   REMARKS
CASA GRANDE    SUNNY     92  24   8 CALM      29.80F
GILA BEND      FAIR      98  20   6 W10       29.73F
$$

AZZ503-504-507>509-232100-
SOUTHEAST ARIZONA

CITY           SKY/WX    TMP DP  RH WIND       PRES   REMARKS
TUCSON         SUNNY     93  18   6 CALM      29.86F
DAVIS-MONTHAN  SUNNY     93  18   6 CALM      29.85F
RYAN FIELD     SUNNY     97  18   5 W14G22    29.85F
NOGALES        SUNNY     93  12   5 SW12G22   29.95F
SIERRA VISTA   SUNNY     88  12   6 W7G26     30.00F
DOUGLAS        SUNNY     87  21   9 VRB3      29.98F
SAFFORD        SUNNY     83  33  16 E10       29.95F
$$

AZZ532-232100-
SOUTHWEST ARIZONA

CITY           SKY/WX    TMP DP  RH WIND       PRES   REMARKS
YUMA           SUNNY     92  33  12 SW9       29.73F
$$

CAZ041-043-047-048-061-525>527-560>570-232100-
SOUTHERN CALIFORNIA

CITY           SKY/WX    TMP DP  RH WIND       PRES   REMARKS
DOWNTOWN L.A.  SUNNY     77  56  48 W5        29.85F
L.A. AIRPORT   MOSUNNY   69  57  65 W14       29.87F
SAN DIEGO      MOSUNNY   68  55  63 SW9       29.91F
BURBANK        SUNNY     77  45  32 SW8G18    29.85F
ONTARIO        MOSUNNY   81  46  29 SW13G18   29.84F
RIVERSIDE      SUNNY     82  50  32 W10       29.84F
PALM SPRINGS   SUNNY     96  36  12 NW8       29.72F
EL CENTRO NAS  MOSUNNY   98  20   6 SW12G28   29.72F
IMPERIAL       PTSUNNY   96  32  10 S12       29.70F
BLYTHE         PTSUNNY   98  16   5 SW23G30   29.71F
NEEDLES        SUNNY     96  22   7 SW15G28   29.70F
$$

NVZ020-UTZ003-232100-
SOUTHERN NEVADA-UTAH

CITY           SKY/WX    TMP DP  RH WIND       PRES   REMARKS
LAS VEGAS      MOSUNNY   87  15   7 S21G33    29.67F
SALT LAKE CITY CLOUDY    65  40  39 W13       29.80S
$$

NMZ009-TXZ055-232100-
NEW MEXICO-WEST TEXAS

CITY           SKY/WX    TMP DP  RH WIND       PRES   REMARKS
ALBUQUERQUE    MOSUNNY   70  33  25 S10       30.07F
EL PASO        MOSUNNY   74  27  17 S9        30.08F
$$


........................KEY........................
SKY/WX - SKY CONDITION/WEATHER
TMP    - TEMPERATURE IN FAHRENHEIT
DP     - DEW POINT IN FAHRENHEIT
RH     - RELATIVE HUMIDITY IN PERCENT
WIND   - DIRECTION AND SPEED IN MILES PER HOUR (MPH)
VRB    - VARIABLE WIND DIRECTION
PRES   - MEAN SEA LEVEL PRESSURE IN INCHES OF MERCURY
         F - FALLING PRESSURE   R - RISING PRESSURE
         S - STEADY PRESSURE
VSB    - VISIBILITY IN MILES
HX     - HEAT INDEX IN FAHRENHEIT
WCI    - WIND CHILL INDEX IN FAHRENHEIT
TC     - TEMPERATURE IN CELSIUS WHICH IS ALSO KNOWN AS
         TEMPERATURE IN CENTIGRADE
AFB    - AIR FORCE BASE
         LUKE AFB IS LUKE AIR FORCE BASE
         DAVIS-MONTHAN IS DAVIS-MONTHAN AIR FORCE BASE
NAS    - NAVAL AIR STATION
         EL CENTRO NAS IS EL CENTRO NAVAL AIR STATION
N/A    - NOT AVAILABLE





USA.gov is the U.S. government's official web portal to all federal, state and local government web resources and services.